[[{"header":{"parameterUnit":"m.s-1","parameterCategory":1,"la1":30.2991,"la2":30.254,"lo1":-89.0895,"lo2":-89.0444,"dy":0.0017,"dx":0.0017,"nx":28,"ny":28,"refTime":"2025-01-31T09:00:00:Z","depth":0,"parameterNumber":2,"parameterNumberName":"U-component_of_WINDS"},"data":[0,0,0,0,0,0,0,0,0,0,0,0,0,0,0,0,0,0,0,0,0,0,0,0,0,0,0,0,0,0,0,0,0,0,0,0,0,0,0,0,0,0,0,0,0,0,0,0,0,0,0,0,0,0,0,0,0,0,0.4498,0.4499,0,0.459,0.4591,0.4592,0.462,0.462,0.462,0.4619,0.4716,0.4719,0.4722,0,0,0,0,0,0,0,0,0,0,0,0,0,0.4347,0.435,0.4498,0.4499,0.45,0.459,0.4591,0.4592,0.4621,0.462,0.4619,0.4619,0.4715,0.4719,0.4723,0,0,0,0,0,0,0,0,0,0,0,0,0,0.4423,0.4351,0.4498,0.4525,0.4528,0.459,0.4591,0.4593,0.4621,0.462,0.4619,0.4619,0.4714,0.4719,0.4723,0.4765,0,0,0.4737,0.4739,0,0,0,0,0,0,0,0,0.4419,0.4429,0.452,0.4523,0.4527,0.4593,0.4574,0.4651,0.4621,0.4586,0.4619,0.4618,0.4676,0.4684,0.4703,0.4769,0.4774,0.4737,0.474,0.4742,0.4743,0,0,0,0,0,0,0,0.4414,0.4425,0.4534,0.4521,0.4525,0.4533,0.4543,0.4588,0.4634,0.4589,0.4591,0.4601,0.4678,0.4698,0.4705,0.4775,0.4737,0.4741,0.4744,0.4746,0.4878,0.4879,0,0,0,0,0,0,0.4404,0.4421,0.4531,0.4537,0.447,0.4536,0.4547,0.4573,0.4633,0.4642,0.4602,0.4602,0.4691,0.47,0.4709,0.476,0.4742,0.4746,0.4749,0.4878,0.4879,0.4879,0,0,0,0,0,0,0.44,0.4413,0.4528,0.4479,0.4495,0.4539,0.4567,0.4575,0.4595,0.4643,0.4652,0.4614,0.4691,0.4702,0.475,0.4764,0.4748,0.4752,0.4877,0.4878,0.4879,0.4864,0,0,0,0,0,0,0.4396,0.4412,0.4428,0.448,0.4497,0.4567,0.4568,0.4577,0.4602,0.4604,0.4657,0.4665,0.4691,0.4743,0.4754,0.477,0.4756,0.4876,0.4877,0.4879,0.4864,0.4865,0.4866,0,0,0,0,0,0.439,0.4421,0.4429,0.4442,0.4518,0.4568,0.4578,0.4606,0.4603,0.462,0.465,0.4663,0.476,0.4748,0.4761,0.4778,0.4875,0.4877,0.4879,0.4863,0.4864,0.4866,0,0,0,0,0,0,0.4372,0.4429,0.4438,0.4486,0.4522,0.4573,0.4595,0.4607,0.4645,0.4645,0.468,0.4691,0.4736,0.4762,0.4747,0.482,0.4818,0.4823,0.4802,0.4804,0.4805,0.4797,0.476,0,0,0,0,0,0.4373,0.4408,0.4456,0.4494,0.4512,0.455,0.4573,0.4591,0.463,0.4645,0.468,0.4717,0.4756,0.4781,0.482,0.4867,0.4879,0.4885,0.4886,0.4887,0.489,0.4916,0.4919,0.4885,0.4885,0.4885,0,0,0.4377,0.4412,0.4432,0.4491,0.4521,0.4557,0.4562,0.4601,0.4627,0.4652,0.4698,0.4724,0.4769,0.4816,0.4838,0.4838,0.4902,0.4889,0.4889,0.4893,0.4918,0.4921,0.4924,0.4887,0.4886,0.4886,0,0,0.4401,0.4432,0.4466,0.4495,0.4539,0.4564,0.4572,0.4621,0.4639,0.4685,0.4704,0.4736,0.4803,0.4833,0.4857,0.489,0.4903,0.4902,0.4908,0.4932,0.4934,0.4937,0.4948,0.4951,0.4906,0.4905,0.4905,0,0.44,0.4454,0.4482,0.4519,0.4543,0.4565,0.46,0.4627,0.4682,0.4699,0.4698,0.4781,0.4812,0.4866,0.4873,0.4893,0.4903,0.4897,0.4932,0.4934,0.4937,0.4948,0.4952,0.4905,0.4905,0.4905,0.4905,0,0.445,0.4487,0.451,0.456,0.4588,0.4623,0.4656,0.4681,0.4696,0.4721,0.4768,0.4806,0.4851,0.4866,0.4882,0.4921,0.492,0.4925,0.4923,0.4939,0.495,0.4954,0.4904,0.4904,0.4905,0.4905,0,0,0.4467,0.4531,0.4539,0.4561,0.4611,0.464,0.4676,0.4719,0.4739,0.4776,0.4806,0.4861,0.4865,0.4892,0.4912,0.4933,0.4955,0.4936,0.4937,0.4937,0.4999,0.4995,0.4999,0.4964,0.4965,0.4965,0.4995,0,0.4498,0.4562,0.4587,0.4639,0.4673,0.4693,0.4724,0.4757,0.4781,0.4813,0.484,0.4877,0.4881,0.4897,0.4919,0.4948,0.4968,0.4946,0.4993,0.4994,0.4981,0.5005,0.5001,0.5028,0.5,0.5001,0.5001,0,0.4542,0.4577,0.4632,0.4675,0.4691,0.4718,0.4759,0.4789,0.4827,0.4843,0.4872,0.489,0.4928,0.4923,0.4975,0.496,0.498,0.4997,0.4999,0.5004,0.4999,0.5011,0.5037,0.5041,0.5008,0.5008,0.5007,0,0.4548,0.4609,0.4649,0.4668,0.472,0.4738,0.4761,0.4798,0.4822,0.4858,0.4873,0.4913,0.4935,0.4966,0.4994,0.4988,0.5043,0.5041,0.5057,0.5056,0.5068,0.5067,0.5097,0.5081,0.5081,0.5081,0.5081,0,0.4579,0.4612,0.4652,0.4677,0.4714,0.4742,0.4778,0.4802,0.4834,0.4864,0.4884,0.4912,0.4947,0.4979,0.5001,0.5041,0.5051,0.5064,0.507,0.5062,0.506,0.5076,0.5075,0.5082,0.5082,0.5082,0.5082,0,0.4592,0.462,0.4665,0.471,0.4722,0.4747,0.4785,0.481,0.4833,0.4871,0.4881,0.4918,0.4957,0.4987,0.5038,0.5053,0.5094,0.51,0.5081,0.5083,0.5097,0.5095,0.5139,0.5145,0.5125,0.5125,0.5125,0,0.461,0.4635,0.4681,0.4702,0.4724,0.4758,0.4781,0.4809,0.4833,0.4877,0.4896,0.4936,0.4969,0.5029,0.5061,0.51,0.5107,0.5119,0.5113,0.5104,0.5106,0.5104,0.5107,0.512,0.512,0.512,0.5121,0,0.4638,0.465,0.4683,0.4721,0.4748,0.4779,0.4811,0.4827,0.4861,0.4886,0.4925,0.495,0.5001,0.5039,0.5081,0.5104,0.5118,0.5122,0.5128,0.512,0.5107,0.5114,0.5082,0.5121,0.5121,0.5121,0.5121,0.5121,0.4654,0.4676,0.4712,0.4748,0.4774,0.4802,0.4827,0.4853,0.4885,0.4928,0.4942,0.4982,0.5018,0.5074,0.5098,0.5129,0.513,0.5139,0.5141,0.5142,0.5141,0.5102,0.5137,0.5137,0.5137,0.5137,0.5137,0,0.4683,0.4706,0.4738,0.4781,0.4808,0.4817,0.4852,0.4875,0.4909,0.494,0.4972,0.5015,0.5052,0.5086,0.5125,0.5143,0.515,0.5153,0.5152,0.5156,0.5138,0.5129,0.5146,0.5146,0.5146,0.5146,0.5146,0.5146,0.4701,0.4739,0.4755,0.4806,0.483,0.4868,0.4886,0.4913,0.4938,0.4985,0.5015,0.5037,0.5069,0.511,0.5144,0.5153,0.5166,0.5166,0.5177,0.5159,0.5158,0.5157,0.5148,0.5169,0.5169,0.5193,0.5193,0.5193]},{"header":{"parameterUnit":"m.s-1","parameterCategory":1,"la1":30.2991,"la2":30.254,"lo1":-89.0895,"lo2":-89.0444,"dy":0.0017,"dx":0.0017,"nx":28,"ny":28,"refTime":"2025-01-31T09:00:00:Z","depth":0,"parameterNumber":3,"parameterNumberName":"V-component_of_WINDS"},"data":[0,0,0,0,0,0,0,0,0,0,0,0,0,0,0,0,0,0,0,0,0,0,0,0,0,0,0,0,0,0,0,0,0,0,0,0,0,0,0,0,0,0,0,0,0,0,0,0,0,0,0,0,0,0,0,0,0,0,2.0337,2.0336,0,2.0278,2.0277,2.0276,2.0272,2.0273,2.0273,2.0274,2.0207,2.0205,2.0203,0,0,0,0,0,0,0,0,0,0,0,0,0,2.0439,2.0437,2.0337,2.0336,2.0335,2.0278,2.0277,2.0276,2.0272,2.0273,2.0274,2.0274,2.0208,2.0205,2.0203,0,0,0,0,0,0,0,0,0,0,0,0,0,2.0389,2.0437,2.0337,2.0326,2.0325,2.0278,2.0277,2.0276,2.0272,2.0273,2.0274,2.0275,2.0209,2.0206,2.0202,2.016,0,0,2.0191,2.019,0,0,0,0,0,0,0,0,2.0392,2.0385,2.0329,2.0327,2.0325,2.0283,2.0289,2.0237,2.0271,2.0292,2.0274,2.0275,2.0231,2.0226,2.0213,2.0157,2.0154,2.0191,2.0189,2.0187,2.0186,0,0,0,0,0,0,0,2.0395,2.0387,2.0313,2.0328,2.0326,2.0322,2.0316,2.0279,2.0256,2.029,2.029,2.0283,2.0231,2.0216,2.0211,2.0153,2.0191,2.0188,2.0186,2.0184,2.0058,2.0057,0,0,0,0,0,0,2.0401,2.039,2.0315,2.0311,2.0362,2.032,2.0313,2.0296,2.0257,2.0252,2.0282,2.0283,2.0222,2.0215,2.0209,2.0156,2.0187,2.0184,2.0182,2.0059,2.0058,2.0057,0,0,0,0,0,0,2.0404,2.0395,2.0317,2.0351,2.0341,2.0317,2.0298,2.0294,2.028,2.0251,2.0246,2.0272,2.0222,2.0214,2.0172,2.0153,2.0182,2.0179,2.0061,2.0059,2.0057,2.005,0,0,0,0,0,0,2.0407,2.0396,2.0381,2.0351,2.0339,2.0284,2.0296,2.0292,2.0274,2.0275,2.024,2.0235,2.0222,2.0178,2.0169,2.0149,2.0176,2.0062,2.006,2.0058,2.0052,2.0049,2.0046,0,0,0,0,0,2.041,2.038,2.038,2.0371,2.032,2.0283,2.0276,2.0264,2.0273,2.0256,2.0238,2.0236,2.0157,2.0173,2.0163,2.0142,2.0063,2.0061,2.0058,2.0054,2.0049,2.0046,0,0,0,0,0,0,2.0407,2.0376,2.0376,2.0335,2.0312,2.0282,2.0261,2.0259,2.0231,2.0233,2.0217,2.0209,2.0168,2.0151,2.0169,2.0099,2.0111,2.0106,2.0111,2.0107,2.0104,2.0108,2.0173,0,0,0,0,0,2.0402,2.0376,2.0349,2.0316,2.0305,2.0285,2.0268,2.0261,2.0235,2.0225,2.0203,2.0177,2.0146,2.0126,2.0096,2.005,2.0042,2.0031,2.0027,2.0025,2.002,1.9994,1.9988,2.0048,2.0048,2.0048,0,0,2.039,2.037,2.0354,2.0315,2.0296,2.0267,2.0277,2.0246,2.0224,2.0219,2.0179,2.0163,2.0132,2.0088,2.0067,2.0073,2.0002,2.0021,2.002,2.0016,1.999,1.9985,1.9979,2.0046,2.0046,2.0047,0,0,2.0353,2.0337,2.0307,2.0288,2.026,2.0247,2.024,2.0211,2.02,2.016,2.0156,2.0128,2.0076,2.0054,2.0036,1.9992,1.9988,1.9982,1.9964,1.9938,1.9934,1.9929,1.9912,1.9906,1.9978,1.9978,1.9978,0,2.0342,2.0301,2.0291,2.0261,2.0243,2.024,2.0208,2.0189,2.0152,2.0139,2.0146,2.008,2.0059,2.0009,1.9998,1.9984,1.9974,1.9985,1.9936,1.9931,1.9927,1.991,1.9904,1.9977,1.9977,1.9977,1.9977,0,2.0287,2.0258,2.0237,2.0204,2.0183,2.0152,2.0136,2.0116,2.0111,2.0097,2.0055,2.003,1.9995,1.9983,1.9976,1.9931,1.9935,1.9939,1.9951,1.9921,1.9904,1.9898,1.9976,1.9977,1.9977,1.9977,0,0,2.0245,2.0208,2.02,2.0184,2.0153,2.013,2.0098,2.0066,2.0048,2.0023,1.9994,1.995,1.9954,1.9933,1.9924,1.9902,1.9866,1.9908,1.9907,1.99,1.9814,1.981,1.9803,1.9865,1.9864,1.9863,1.9816,0,2.0205,2.0151,2.0141,2.0092,2.0065,2.0061,2.0034,2.001,1.9996,1.9969,1.9953,1.9922,1.9929,1.9917,1.9895,1.9876,1.9849,1.9879,1.9836,1.9834,1.9842,1.9795,1.9791,1.9748,1.981,1.9809,1.9808,0,2.015,2.0125,2.0074,2.0047,2.0035,2.001,1.9979,1.9954,1.9927,1.9919,1.9896,1.989,1.9854,1.9869,1.9819,1.984,1.9822,1.981,1.9808,1.9802,1.9818,1.9786,1.9734,1.9727,1.9798,1.9799,1.98,0,2.0123,2.0077,2.004,2.0027,1.9994,1.9977,1.9962,1.9936,1.9917,1.989,1.9876,1.9844,1.9826,1.9801,1.9785,1.9797,1.9735,1.9749,1.9725,1.9725,1.9711,1.9712,1.9654,1.9702,1.9702,1.9702,1.9702,0,2.0077,2.0046,2.0028,2.0005,1.9969,1.9958,1.9922,1.9907,1.9885,1.9857,1.9852,1.9826,1.9808,1.9779,1.9766,1.9726,1.9718,1.9708,1.9705,1.9708,1.9709,1.9694,1.9696,1.97,1.9701,1.9701,1.9701,0,2.004,2.0027,1.9987,1.996,1.9953,1.9927,1.9903,1.988,1.9867,1.9832,1.9823,1.9801,1.9767,1.9749,1.9706,1.9697,1.9651,1.965,1.9661,1.9659,1.9636,1.9637,1.9565,1.9554,1.9611,1.9611,1.961,0,2.0012,1.9988,1.9959,1.9941,1.9927,1.9898,1.9879,1.9867,1.9847,1.9815,1.9795,1.9761,1.9733,1.9677,1.9656,1.9622,1.962,1.9597,1.9614,1.9618,1.9617,1.9618,1.9615,1.9593,1.9592,1.9592,1.9592,0,1.9961,1.9956,1.993,1.9901,1.9879,1.9855,1.9832,1.9817,1.9801,1.9778,1.9744,1.9723,1.9679,1.9644,1.9609,1.9592,1.9588,1.9587,1.9579,1.9581,1.9587,1.9582,1.9651,1.9588,1.9588,1.9588,1.9589,1.9589,1.9926,1.9905,1.9881,1.9852,1.9833,1.9811,1.9788,1.9773,1.9745,1.971,1.9704,1.9667,1.964,1.9593,1.9574,1.9544,1.9548,1.9538,1.9535,1.9532,1.953,1.9594,1.9537,1.9538,1.9538,1.9538,1.9538,0,1.9874,1.9859,1.9833,1.9801,1.9777,1.9779,1.9753,1.9732,1.9701,1.9677,1.965,1.961,1.9577,1.9553,1.9519,1.9499,1.9496,1.949,1.949,1.9486,1.9529,1.9538,1.9493,1.9493,1.9493,1.9493,1.9493,1.9493,1.9844,1.9807,1.9799,1.9753,1.9737,1.9703,1.9688,1.9667,1.9648,1.9604,1.9577,1.9563,1.9539,1.9502,1.9471,1.9465,1.9451,1.9445,1.9438,1.9478,1.9483,1.9487,1.9496,1.9443,1.9443,1.9398,1.9398,1.9397]}]]